Estación de Recoleta

Ultimos registro cada 15 minutos 37
Estación Fecha / Hora Temperatura Humedad Lluvia Velocidad Dirección Radiación Presion
37 Recoleta 10-05-2026 09:00 11,5 77,9 0 0 138 106,9 967,2
36 Recoleta 10-05-2026 08:45 10,9 87,4 0 0 139 263,1 967
35 Recoleta 10-05-2026 08:30 9,5 95,1 0 0 145 218,1 967,1
34 Recoleta 10-05-2026 08:15 8,5 97,1 0 0 153 171,9 967,1
33 Recoleta 10-05-2026 08:00 6,3 97,1 0 0 156 16,9 966,9
32 Recoleta 10-05-2026 07:45 4,1 97,3 0 0 167 59,4 967,1
31 Recoleta 10-05-2026 07:30 3,9 97,3 0 0 166 4,4 967,1
30 Recoleta 10-05-2026 07:15 3,7 97 0 0 157 0,6 967
29 Recoleta 10-05-2026 07:00 3,8 97,1 0 0 157 0,6 967
28 Recoleta 10-05-2026 06:45 4,1 96,9 0 0 157 0,6 967
27 Recoleta 10-05-2026 06:30 4,2 97 0 0 157 0,6 966,8
26 Recoleta 10-05-2026 06:15 3,9 96,8 0 0 157 0,6 966,9
25 Recoleta 10-05-2026 06:00 4 96,6 0 0 157 0,6 966,9
24 Recoleta 10-05-2026 05:45 4,2 96,6 0 0 157 0,6 966,7
23 Recoleta 10-05-2026 05:30 4,1 96,3 0 0 156 0,6 966,9
22 Recoleta 10-05-2026 05:15 4,3 96,4 0 0 154 0,6 967
21 Recoleta 10-05-2026 05:00 4,4 96,1 0 0 154 0,6 967
20 Recoleta 10-05-2026 04:45 4,5 96,4 0 0 154 0,6 967
19 Recoleta 10-05-2026 04:30 4,6 96,8 0 0 153 0,6 967,3
18 Recoleta 10-05-2026 04:15 4,6 95,9 0 0 153 0,6 967,4
17 Recoleta 10-05-2026 04:00 4,4 96 0 0 153 0,6 967,4
16 Recoleta 10-05-2026 03:45 4,5 95,8 0 0 153 0,6 967,5
15 Recoleta 10-05-2026 03:30 4,4 95,1 0 0 153 0,6 967,7
14 Recoleta 10-05-2026 03:15 4,6 95,5 0 0 153 0,6 967,8
13 Recoleta 10-05-2026 03:00 4,8 95 0 0 153 0,6 967,8
12 Recoleta 10-05-2026 02:45 5,1 95,3 0 0 153 0,6 968
11 Recoleta 10-05-2026 02:30 5,1 94,9 0 0 153 0,6 968,1
10 Recoleta 10-05-2026 02:15 4,8 94,8 0 0 153 0,6 968,1
9 Recoleta 10-05-2026 02:00 4,7 94,2 0 0 153 0,6 968,3
8 Recoleta 10-05-2026 01:45 5,2 94,2 0 0 153 0,6 968,2
7 Recoleta 10-05-2026 01:30 5,9 94,9 0 0 153 0,6 968
6 Recoleta 10-05-2026 01:15 5,4 93,4 0 0 153 0,6 968,1
5 Recoleta 10-05-2026 01:00 5,8 93 0 0 152 0,6 968,2
4 Recoleta 10-05-2026 00:45 6,2 92,7 0 0 152 0,6 968,4
3 Recoleta 10-05-2026 00:30 6,6 92,7 0 0 152 0,6 968,5
2 Recoleta 10-05-2026 00:15 7,2 92,4 0 0 152 0,6 968,6
1 Recoleta 10-05-2026 00:00 7 92,3 0 0 152 0,6 968,9